Regional Weather Roundup
Issued by NWS Goodland, KS

Home | Current Version | Previous Version | Graphics & Text | Print | Product List | Glossary On
Versions: 1 2 3 4 5 6 7 8 9 10 11 12 13 14 15 16 17 18 19 20 21 22 23 24 25 26 27 28 29 30 31 32 33 34 35 36 37 38 39 40 41 42 43 44 45 46 47 48 49 50
000
ASUS43 KGLD 151959
RWRGLD

GOODLAND FORECAST AREA HOURLY WEATHER ROUNDUP
NATIONAL WEATHER SERVICE GOODLAND KS
100 PM MST FRI DEC 15 2017

...OFFICIAL OBSERVATIONS...

CITY           SKY/WX    TMP DP  RH WIND       PRES   REMARKS
GOODLAND KS    SUNNY     59   2  10 SW18      29.94F
HILL CITY KS   SUNNY     57  17  21 W14G20    29.95F
IMPERIAL NEB   SUNNY     58  10  15 W18       29.89F
MCCOOK NEB     SUNNY     56  14  19 W17       29.90F
AKRON CO       SUNNY     54  14  20 SW15      29.92F
BURLINGTON CO  SUNNY     57   8  14 SW17      29.97F
LIMON CO       SUNNY     58   8  13 W8        29.97F
$$

...UNOFFICIAL OBSERVATIONS...

CITY           SKY/WX    TMP DP  RH WIND       PRES   REMARKS
LENORA KS        N/A     57  32  39 W6          N/A
NORTON KS      SUNNY     57   1  10 SW15      29.92
SHARON SPRINGS   N/A     56  12  17 SW17G24     N/A
TRENTON NEB      N/A     54  32  43 W7          N/A
KIT CARSON CO    N/A     55  11  17 MISG        N/A
YUMA CO        FAIR      59   5  11 SW13      29.91F
$$




USA.gov is the U.S. government's official web portal to all federal, state and local government web resources and services.